Tracking 19794 objects as of 21-Jul-2019
HD Live streaming from Space Station
objects crossing your sky now

FENGYUN 1C DEB

Track FENGYUN 1C DEB now!
10-day predictions


NORAD ID: 37903
Int'l Code: 1999-025ENC
Perigee: 702.8 km
Apogee: 1,191.0 km
Inclination: 98.2 °
Period: 103.8 minutes
Semi major axis: 7317 km
RCS: 0.0009 m2 (small)
Launch date: May 10, 1999
Source: People's Republic of China (PRC)
Launch site: Taiyaun Space Center, China (TSC)

Note: This is SATELLITE DEBRIS
aabbcc
Your satellite tracking list
Your tracking list is empty




NASA's NSSDC Master Catalog

Two Line Element Set (TLE):
1 37903U 99025ENC 19200.14508568 -.00000379  00000-0 -19011-3 0  9992
2 37903  98.1864 328.6267 0333526  48.3394 314.5813 13.86827337584748
Source of the keplerian elements: AFSPC